Vorticity
5 6 5 6 5 7 6 2 3 7 1 14 15 15 9 6 5 2 5 3 3 5 8 6 1 3 5 7 7 7 14 30 27 22 27 24 29 12 14 14 20 32 23 29 23
5 5 5 6 6 7 4 4 7 0 5 12 15 12 9 7 6 3 4 5 9 6 3 -9 3 7 10 5 4 10 26 29 27 22 28 28 15 9 10 14 34 29 24 23 23
6 4 4 5 5 7 4 2 5 2 7 12 15 12 6 3 -0 1 4 7 1 7 9 2 3 1 4 3 2 15 28 33 23 27 32 21 9 11 13 12 20 40 21 22 23
6 5 5 4 9 8 -13 -3 1 9 5 12 17 13 5 5 6 4 5 2 6 0 10 1 3 5 8 10 14 34 34 24 22 42 16 8 4 7 15 13 20 32 19 21 29
4 6 6 7 -2 -16 23 4 9 9 3 12 15 10 4 3 6 6 5 4 0 2 -6 -8 2 9 9 2 22 31 34 22 25 26 13 2 1 9 16 12 15 32 22 21 26
4 5 6 5 0 9 9 -1 14 7 5 11 14 12 3 4 -1 3 2 1 0 0 5 7 7 0 0 10 21 34 32 25 24 13 8 5 11 14 14 14 11 26 25 17 30
6 5 5 5 6 5 -0 13 10 5 8 8 13 13 3 5 4 1 -2 1 1 2 7 2 5 3 9 16 27 29 27 15 18 9 -3 10 14 25 18 14 20 23 26 15 33
5 5 7 7 15 -4 4 9 8 5 8 3 16 8 5 4 3 7 9 1 2 3 -1 -7 -3 -2 -1 30 21 31 22 15 25 15 2 14 14 12 18 14 4 21 26 11 47
5 5 6 9 4 -1 6 6 7 6 8 8 21 6 4 2 1 2 -3 1 8 3 1 -0 3 -1 10 31 27 28 22 12 9 3 14 15 4 -3 9 -7 21 33 22 26 31
5 6 8 17 -3 -12 23 4 7 8 7 10 19 6 5 3 5 3 -0 3 5 0 2 4 4 5 -12 16 33 35 28 9 20 21 15 5 -4 28 2 18 20 42 20 26 31
6 5 6 5 7 -19 23 4 8 8 6 19 20 5 4 4 2 0 2 3 1 1 2 7 8 1 23 19 34 26 18 7 -2 21 4 -22 14 9 -4 7 -5 9 41 25 30
7 7 7 2 3 4 15 4 6 6 -2 26 15 0 2 -0 1 5 4 4 3 -2 7 7 -2 7 10 18 37 29 13 -2 5 6 9 8 -3 -1 20 16 14 5 33 20 35
2 1 -2 7 -8 12 10 6 6 7 9 9 14 -1 2 -1 -0 -2 0 4 4 5 4 5 4 9 14 26 30 38 17 2 7 11 9 5 12 29 9 25 18 10 17 35 31
1 4 6 0 3 19 5 7 7 4 6 24 -0 6 7 1 -1 2 7 4 6 5 5 5 6 11 3 22 34 33 36 -2 -3 8 4 9 20 29 -2 9 5 21 12 22 51
5 -0 6 10 17 16 5 6 9 3 5 -8 15 10 6 2 7 6 4 5 6 4 2 1 5 12 0 8 41 30 30 -5 6 -11 0 9 4 18 17 20 15 -10 -13 38 40
-2 8 7 4 15 13 7 7 3 7 13 7 7 17 11 5 5 6 4 6 2 5 3 1 4 15 1 8 22 43 19 5 -0 6 8 -0 9 4 25 8 19 13 19 9 62
11 -0 10 22 8 9 10 6 5 2 5 3 5 17 7 5 4 5 3 -3 -3 -1 4 2 5 9 18 21 31 26 28 5 7 6 3 9 10 12 7 0 -2 31 12 20 17
13 29 13 -2 8 6 6 6 7 5 4 7 10 11 9 4 4 6 5 6 5 5 4 1 4 12 6 12 24 25 37 20 12 -5 9 9 7 11 11 1 3 18 16 12 19
24 -8 4 12 5 1 7 -1 3 8 4 3 5 13 7 5 6 8 4 4 3 2 6 1 3 5 10 12 16 26 17 27 18 9 1 9 7 -1 4 5 8 10 34 6 27
2 8 -1 9 5 -2 12 7 6 2 5 8 8 14 8 4 9 4 5 4 3 3 5 -2 6 5 11 17 14 27 18 26 10 16 13 2 4 6 6 6 9 11 20 20 8
4 9 18 8 7 3 -0 -3 18 9 5 10 7 9 5 6 7 3 4 3 4 2 2 -3 3 0 13 14 22 23 12 21 26 12 13 10 5 6 1 5 17 21 21 23 2
12 5 15 10 8 3 5 5 -0 8 2 6 5 11 5 6 3 4 6 5 2 1 0 -5 1 6 15 14 19 19 13 14 35 7 13 8 14 -1 4 -1 4 -3 27 23 14
13 11 10 19 12 5 5 9 11 5 8 9 9 6 6 5 2 4 7 5 1 1 1 -6 -0 3 15 15 22 16 17 14 23 20 4 7 9 4 6 6 2 4 27 23 18
3 10 9 17 13 8 4 7 8 16 10 6 7 8 5 4 2 5 4 4 0 1 4 -0 7 2 15 16 17 15 16 19 14 33 6 4 7 11 7 7 5 6 -0 48 25
-5 8 2 11 3 13 10 10 11 1 9 8 9 8 8 5 6 6 6 3 2 1 4 3 9 5 16 16 16 13 17 22 18 17 31 8 8 8 6 6 7 2 6 50 13
3 -2 15 -17 14 15 16 16 12 8 4 12 12 9 11 4 6 2 6 3 3 0 4 2 1 3 13 18 17 6 26 22 17 21 14 22 9 5 7 8 7 6 13 5 34
12 -0 6 -2 12 8 5 -0 6 6 7 14 13 12 7 6 4 5 5 4 2 1 3 6 4 3 7 20 16 8 19 21 21 22 21 21 14 5 5 7 5 5 7 5 59
Height
5843 5840 5838 5836 5833 5830 5826 5822 5818 5814 5811 5806 5802 5797 5793 5791 5789 5786 5783 5779 5775 5769 5764 5757 5750 5739 5726 5712 5699 5680 5653 5623 5613 5598 5591 5579 5575 5569 5565 5559 5557 5556 5559 5571 5582
5839 5836 5834 5831 5829 5826 5823 5819 5815 5811 5807 5803 5799 5794 5791 5788 5785 5782 5778 5773 5769 5764 5759 5752 5742 5729 5716 5700 5681 5661 5635 5610 5598 5584 5578 5572 5567 5564 5561 5555 5551 5547 5551 5557 5568
5835 5832 5830 5828 5825 5822 5820 5815 5811 5807 5803 5800 5795 5791 5788 5785 5783 5778 5773 5769 5765 5761 5754 5745 5735 5723 5707 5688 5668 5643 5620 5603 5589 5577 5569 5568 5566 5560 5557 5553 5547 5548 5549 5555 5565
5830 5828 5826 5823 5821 5818 5815 5811 5807 5802 5799 5796 5792 5788 5785 5783 5780 5774 5770 5766 5761 5755 5748 5739 5727 5713 5699 5679 5658 5633 5608 5595 5585 5574 5569 5567 5566 5561 5556 5551 5547 5546 5548 5557 5565
5825 5824 5821 5819 5816 5814 5811 5807 5802 5799 5796 5792 5789 5786 5783 5779 5775 5769 5765 5761 5755 5748 5741 5731 5720 5705 5688 5667 5645 5622 5603 5590 5580 5573 5570 5567 5564 5560 5555 5552 5548 5547 5549 5555 5563
5820 5818 5817 5815 5812 5810 5806 5802 5798 5795 5792 5788 5785 5782 5779 5777 5772 5766 5761 5755 5749 5741 5734 5723 5711 5696 5680 5657 5637 5612 5599 5587 5579 5573 5571 5569 5565 5559 5554 5551 5550 5548 5550 5556 5562
5815 5813 5811 5809 5806 5805 5802 5799 5795 5791 5788 5784 5781 5777 5775 5772 5766 5763 5757 5749 5742 5735 5726 5716 5702 5686 5666 5645 5621 5607 5596 5584 5578 5575 5573 5568 5565 5559 5554 5551 5551 5552 5554 5560 5567
5809 5808 5806 5804 5801 5799 5797 5794 5791 5786 5783 5780 5778 5774 5771 5768 5763 5756 5750 5746 5738 5730 5720 5708 5694 5679 5663 5634 5615 5602 5594 5585 5581 5577 5574 5570 5565 5560 5557 5554 5552 5553 5556 5561 5569
5803 5801 5800 5798 5796 5794 5792 5789 5787 5782 5779 5776 5774 5771 5768 5765 5759 5754 5749 5741 5733 5725 5714 5702 5690 5675 5658 5643 5620 5604 5595 5588 5582 5579 5575 5571 5568 5564 5560 5557 5554 5554 5559 5566 5573
5796 5795 5794 5792 5791 5790 5788 5784 5782 5778 5775 5772 5768 5768 5764 5759 5754 5749 5743 5736 5729 5720 5710 5700 5687 5670 5656 5639 5616 5604 5597 5590 5585 5581 5577 5573 5569 5565 5563 5561 5558 5555 5561 5567 5577
5790 5789 5788 5785 5786 5785 5783 5780 5778 5776 5771 5767 5764 5762 5759 5755 5750 5745 5739 5732 5724 5715 5706 5696 5684 5666 5648 5629 5613 5602 5597 5592 5589 5584 5582 5577 5572 5568 5567 5564 5562 5561 5563 5569 5577
5782 5782 5780 5779 5779 5779 5777 5775 5772 5769 5768 5763 5761 5759 5756 5752 5747 5740 5736 5731 5722 5713 5701 5691 5678 5662 5643 5627 5614 5604 5600 5594 5593 5589 5585 5580 5576 5571 5568 5567 5566 5567 5568 5572 5578
5770 5772 5773 5774 5774 5773 5771 5770 5768 5765 5763 5760 5757 5755 5752 5750 5745 5740 5734 5725 5718 5708 5699 5687 5673 5659 5645 5628 5612 5606 5602 5599 5595 5591 5587 5583 5579 5576 5573 5571 5571 5570 5572 5577 5583
5761 5762 5766 5768 5769 5766 5765 5763 5763 5761 5759 5757 5754 5751 5747 5745 5742 5735 5727 5722 5714 5705 5695 5684 5669 5659 5645 5631 5616 5608 5603 5600 5598 5594 5590 5586 5583 5579 5577 5576 5575 5574 5576 5578 5583
5756 5759 5760 5762 5761 5760 5759 5759 5758 5758 5755 5753 5749 5745 5741 5740 5736 5730 5724 5717 5711 5703 5694 5684 5671 5660 5646 5632 5616 5608 5602 5600 5599 5596 5593 5590 5588 5583 5582 5581 5580 5577 5577 5579 5586
5750 5753 5754 5754 5755 5754 5752 5753 5755 5755 5750 5748 5744 5741 5739 5736 5731 5726 5721 5715 5708 5701 5691 5679 5667 5653 5639 5629 5616 5607 5603 5601 5600 5597 5595 5592 5590 5587 5585 5583 5582 5578 5578 5582 5587
5742 5745 5747 5748 5749 5748 5747 5749 5750 5747 5746 5744 5740 5737 5734 5731 5728 5723 5718 5713 5706 5697 5686 5677 5665 5654 5643 5628 5616 5604 5601 5600 5602 5599 5595 5592 5590 5587 5586 5584 5581 5578 5578 5582 5589
5734 5737 5739 5741 5742 5742 5742 5745 5743 5741 5739 5737 5735 5732 5730 5728 5724 5719 5713 5707 5701 5692 5684 5673 5662 5652 5639 5629 5615 5605 5600 5597 5596 5596 5596 5593 5590 5589 5587 5585 5583 5583 5581 5583 5588
5727 5730 5731 5733 5735 5736 5737 5738 5737 5735 5735 5733 5730 5728 5726 5722 5719 5714 5709 5703 5696 5688 5680 5668 5657 5646 5635 5626 5617 5605 5600 5595 5594 5594 5594 5593 5592 5590 5588 5587 5585 5585 5585 5585 5589
5718 5720 5723 5725 5728 5729 5730 5731 5730 5729 5728 5726 5725 5723 5720 5717 5714 5709 5703 5699 5692 5684 5675 5665 5655 5644 5633 5621 5612 5605 5600 5595 5593 5593 5592 5593 5591 5590 5590 5589 5587 5586 5587 5587 5590
5708 5711 5714 5717 5719 5722 5723 5724 5723 5722 5722 5722 5719 5717 5716 5712 5709 5704 5699 5695 5688 5680 5671 5661 5650 5642 5633 5624 5613 5605 5598 5594 5592 5592 5590 5591 5592 5590 5590 5589 5588 5588 5588 5587 5590
5701 5701 5705 5708 5712 5713 5715 5716 5717 5716 5715 5715 5713 5712 5710 5708 5704 5700 5695 5689 5683 5676 5668 5659 5648 5640 5632 5621 5609 5602 5598 5593 5589 5589 5589 5588 5590 5588 5589 5588 5589 5587 5586 5587 5589
5692 5694 5697 5700 5702 5704 5707 5709 5710 5710 5708 5708 5707 5706 5704 5703 5700 5696 5691 5685 5679 5671 5664 5654 5645 5638 5630 5620 5608 5599 5596 5592 5587 5586 5586 5586 5588 5587 5587 5587 5587 5587 5585 5586 5588
5684 5686 5690 5693 5695 5697 5698 5701 5701 5702 5701 5701 5701 5700 5699 5697 5694 5692 5687 5681 5674 5668 5660 5650 5641 5633 5626 5615 5605 5599 5595 5590 5586 5582 5583 5583 5584 5584 5585 5586 5587 5587 5587 5587 5588
5677 5679 5684 5686 5688 5690 5691 5693 5694 5695 5696 5694 5694 5693 5693 5692 5689 5686 5682 5677 5670 5664 5655 5647 5637 5631 5623 5613 5602 5596 5591 5585 5581 5579 5579 5581 5580 5581 5582 5583 5584 5583 5585 5584 5586
5670 5673 5676 5679 5681 5683 5684 5686 5686 5687 5689 5688 5688 5687 5687 5686 5684 5681 5677 5672 5667 5659 5650 5643 5636 5629 5619 5609 5600 5594 5588 5582 5577 5574 5572 5574 5578 5578 5578 5580 5581 5581 5582 5583 5583
5664 5666 5669 5672 5673 5676 5678 5678 5679 5680 5681 5680 5681 5681 5681 5680 5678 5676 5672 5666 5661 5654 5646 5640 5632 5625 5615 5606 5598 5593 5583 5578 5574 5570 5569 5568 5573 5575 5576 5577 5578 5579 5579 5578 5577